ONEWEB-0620 (55161 NORAD) Tracking and Keplerian Element Data

This shows tracking and keplerian element data for the satellite.

Feedback or suggestion? Click here.




ElementValue
Catalog55161
NameONEWEB-0620
Epoch Orbit130
Epoch Day13.91667824
Epoch Year2023
RAAN284.1418
Inclination86.5091
Eccentricity0.0008843
Argument of Perigee200.4185
Mean Anonmoly61.147
Mean Motion14.90650449
Decay Rate-0.00048812
L11 55161U 23004X 23013.91667824 -.00048812 00000+0 -50235-2 0 9990
L22 55161 86.5091 284.1418 0008843 200.4185 61.1470 14.90650449 1305



Live tracking and technical data element details for ONEWEB-0620 (NORAD 55161). ONEWEB-0620 can be tracked NOW for your location showing map with azimuth and elevation plus other details from your city location.







IsCatalogInMostPopularTable: catalog: 55161, numindb: 3
Update: records affected: 1



GetName: 55161 ONEWEB-0620

Hit Count: updated at: Tue, 07 Feb 2023 14:17:36 GMT